This demonstration page uses our WeatherBlox Daily Observations layout. Learn more.

Left ArrowRight Arrow

39.92423, -83.80882

Hourly Observations for February 19, 2020

Temp ( °F °C ) Dew Point ( °F °C ) Humidity (%) Winds ( mph kmh ) Pressure ( in mb ) Visibility ( mi km ) Precip ( " mm )
12:56 am 00:56 Clear 29 -1.7 26 -3.3 89 89 NW 8 13 30.35 1028 10 16 0.77 19.56
1:56 am 01:56 Clear 27 -2.8 25 -3.9 92 92 NNW 7 11 30.37 1029 10 16 0.81 20.57
2:56 am 02:56 Clear 26 -3.3 24 -4.4 92 92 NNW 6 9 30.39 1029 10 16 N/A
3:56 am 03:56 Clear 25 -3.9 23 -5 92 92 NNW 5 7 30.40 1030 9 14 N/A
4:56 am 04:56 Clear 26 -3.3 25 -3.9 96 96 N N/A 30.42 1030 8 13 N/A
5:56 am 05:56 Clear 24 -4.4 23 -5 96 96 NNW 5 7 30.44 1031 7 11 N/A
6:56 am 06:56 Clear with Mist and Fog 25 -3.9 24 -4.4 96 96 NW 6 9 30.47 1032 6 10 N/A
7:56 am 07:56 Sunny with Mist and Fog 26 -3.3 26 -3.3 100 100 WNW 5 7 30.50 1033 4 6 N/A
8:56 am 08:56 Sunny 28 -2.2 26 -3.3 92 92 NNW 9 15 30.52 1034 7 11 N/A
9:56 am 09:56 Sunny 31 -0.6 27 -2.8 85 85 NNW 12 19 30.53 1034 10 16 N/A
10:56 am 10:56 Sunny 33 0.6 25 -3.9 72 72 NNW 13 20 30.54 1034 10 16 N/A
11:56 am 11:56 Sunny 35 1.7 26 -3.3 70 70 N 8 13 30.54 1034 10 16 N/A
12:56 pm 12:56 Sunny 36 2.2 24 -4.4 62 62 NNW 10 17 30.53 1034 10 16 0.01 0.25
1:56 pm 13:56 Sunny 38 3.3 23 -5 55 55 NNW 10 17 30.52 1034 10 16 0.01 0.25
2:56 pm 14:56 Sunny 38 3.3 23 -5 55 55 NW 8 13 30.51 1033 10 16 N/A
3:56 pm 15:56 Sunny 38 3.3 23 -5 55 55 NW 10 17 30.50 1033 10 16 N/A
4:56 pm 16:56 Sunny 37 2.8 23 -5 57 57 NNW 8 13 30.51 1033 10 16 N/A
5:56 pm 17:56 Sunny 33 0.6 23 -5 66 66 N 6 9 30.52 1034 10 16 N/A
6:56 pm 18:56 Clear 31 -0.6 24 -4.4 76 76 NNW 5 7 30.52 1034 10 16 N/A
7:56 pm 19:56 Clear 30 -1.1 23 -5 75 75 NNW 6 9 30.52 1034 10 16 N/A
8:56 pm 20:56 Clear 28 -2.2 22 -5.6 78 78 NNW 5 7 30.53 1034 10 16 N/A
9:56 pm 21:56 Clear 29 -1.7 23 -5 78 78 NNW 3 6 30.53 1034 10 16 N/A
10:56 pm 22:56 Clear 30 -1.1 23 -5 75 75 N N/A 30.53 1034 10 16 N/A
11:56 pm 23:56 Clear 29 -1.7 23 -5 78 78 N 3 6 30.52 1033 10 16 N/A

Powered by AerisWeather